owner,sensor,date,latitude,longitude,vertical_datum,direction_of_sea_water_velocity,sea_water_speed,upward_sea_water_velocity,qcFlag 
TABS,ioos:station:wmo:42043:1,2001-08-01T00:00:00Z,28.9818,-94.9186,2.0,79.40268964,1.576895685,-99999.0,'11133222,11111222,99999999' 
TABS,ioos:station:wmo:42043:1,2001-08-01T00:30:00Z,28.9818,-94.9186,2.0,62.81895248,2.079663434,-99999.0,'11133222,11111222,99999999' 
TABS,ioos:station:wmo:42043:1,2001-08-01T01:00:00Z,28.9818,-94.9186,2.0,33.05404885,3.996861269,-99999.0,'11133222,11111222,99999999' 
TABS,ioos:station:wmo:42043:1,2001-08-01T01:30:00Z,28.9818,-94.9186,2.0,40.15611618,5.02426114,-99999.0,'11133222,11111222,99999999' 
TABS,ioos:station:wmo:42043:1,2001-08-01T02:00:00Z,28.9818,-94.9186,2.0,18.33725863,7.406065082,-99999.0,'11133222,11111222,99999999' 
TABS,ioos:station:wmo:42043:1,2001-08-01T02:30:00Z,28.9818,-94.9186,2.0,35.06405727,9.138539271,-99999.0,'11133222,11111222,99999999' 
TABS,ioos:station:wmo:42043:1,2001-08-01T03:00:00Z,28.9818,-94.9186,2.0,36.57315591,10.4221399,-99999.0,'11111222,11111222,99999999' 
TABS,ioos:station:wmo:42043:1,2001-08-01T03:30:00Z,28.9818,-94.9186,2.0,28.59525563,14.89709032,-99999.0,'11111222,11111222,99999999' 
TABS,ioos:station:wmo:42043:1,2001-08-01T04:00:00Z,28.9818,-94.9186,2.0,28.7349315,16.18284586,-99999.0,'11111222,11111222,99999999' 
TABS,ioos:station:wmo:42043:1,2001-08-01T04:30:00Z,28.9818,-94.9186,2.0,32.80033839,15.89407751,-99999.0,'11111222,11111222,99999999' 
TABS,ioos:station:wmo:42043:1,2001-08-01T05:00:00Z,28.9818,-94.9186,2.0,26.38756977,12.98267307,-99999.0,'11111222,11111222,99999999' 
TABS,ioos:station:wmo:42043:1,2001-08-01T05:30:00Z,28.9818,-94.9186,2.0,34.06103963,16.28356533,-99999.0,'11111222,11111222,99999999' 
TABS,ioos:station:wmo:42043:1,2001-08-01T06:00:00Z,28.9818,-94.9186,2.0,35.05347891,17.60284636,-99999.0,'11111222,11111222,99999999' 
TABS,ioos:station:wmo:42043:1,2001-08-01T06:30:00Z,28.9818,-94.9186,2.0,43.23612297,15.6203201,-99999.0,'11111222,11111222,99999999' 
TABS,ioos:station:wmo:42043:1,2001-08-01T07:00:00Z,28.9818,-94.9186,2.0,41.22360798,15.78153668,-99999.0,'11111222,11111222,99999999' 
TABS,ioos:station:wmo:42043:1,2001-08-01T07:30:00Z,28.9818,-94.9186,2.0,42.85224247,17.92360734,-99999.0,'11111222,11111222,99999999' 
TABS,ioos:station:wmo:42043:1,2001-08-01T08:00:00Z,28.9818,-94.9186,2.0,43.18442479,17.18425151,-99999.0,'11111222,11111222,99999999' 
TABS,ioos:station:wmo:42043:1,2001-08-01T08:30:00Z,28.9818,-94.9186,2.0,57.43009354,16.45832616,-99999.0,'11111222,11111222,99999999' 
TABS,ioos:station:wmo:42043:1,2001-08-01T09:00:00Z,28.9818,-94.9186,2.0,56.39070929,15.7535012,-99999.0,'11111222,11111222,99999999' 
TABS,ioos:station:wmo:42043:1,2001-08-01T09:30:00Z,28.9818,-94.9186,2.0,56.67972171,15.47368411,-99999.0,'11111222,11111222,99999999' 
TABS,ioos:station:wmo:42043:1,2001-08-01T10:00:00Z,28.9818,-94.9186,2.0,76.21340575,16.70116164,-99999.0,'11111222,11111222,99999999' 
TABS,ioos:station:wmo:42043:1,2001-08-01T10:30:00Z,28.9818,-94.9186,2.0,74.9488152,14.78729184,-99999.0,'11111222,11111222,99999999' 
TABS,ioos:station:wmo:42043:1,2001-08-01T11:00:00Z,28.9818,-94.9186,2.0,85.27024046,16.8574049,-99999.0,'11111222,11111222,99999999' 
TABS,ioos:station:wmo:42043:1,2001-08-01T11:30:00Z,28.9818,-94.9186,2.0,84.31805168,13.9384827,-99999.0,'11111222,11111222,99999999' 
TABS,ioos:station:wmo:42043:1,2001-08-01T12:00:00Z,28.9818,-94.9186,2.0,83.35300877,12.78594541,-99999.0,'11111222,11111222,99999999' 
TABS,ioos:station:wmo:42043:1,2001-08-01T12:30:00Z,28.9818,-94.9186,2.0,93.44690801,14.6364784,-99999.0,'11111222,11111222,99999999' 
TABS,ioos:station:wmo:42043:1,2001-08-01T13:00:00Z,28.9818,-94.9186,2.0,92.41465087,16.61475248,-99999.0,'11111222,11111222,99999999' 
TABS,ioos:station:wmo:42043:1,2001-08-01T13:30:00Z,28.9818,-94.9186,2.0,84.22886255,14.12157569,-99999.0,'11111222,11111222,99999999' 
TABS,ioos:station:wmo:42043:1,2001-08-01T14:00:00Z,28.9818,-94.9186,2.0,84.33444625,15.19422259,-99999.0,'11111222,11111222,99999999' 
TABS,ioos:station:wmo:42043:1,2001-08-01T14:30:00Z,28.9818,-94.9186,2.0,80.00597925,21.435263,-99999.0,'11111222,11111222,99999999' 
TABS,ioos:station:wmo:42043:1,2001-08-01T15:00:00Z,28.9818,-94.9186,2.0,79.03317757,21.28878813,-99999.0,'11111222,11111222,99999999' 
TABS,ioos:station:wmo:42043:1,2001-08-01T15:30:00Z,28.9818,-94.9186,2.0,78.98730215,20.41596434,-99999.0,'11111222,11111222,99999999' 
TABS,ioos:station:wmo:42043:1,2001-08-01T16:00:00Z,28.9818,-94.9186,2.0,82.950667,17.84489283,-99999.0,'11111222,11111222,99999999' 
TABS,ioos:station:wmo:42043:1,2001-08-01T16:30:00Z,28.9818,-94.9186,2.0,77.72575949,15.3816059,-99999.0,'11111222,11111222,99999999' 
TABS,ioos:station:wmo:42043:1,2001-08-01T17:00:00Z,28.9818,-94.9186,2.0,87.33356542,15.47675677,-99999.0,'11111222,11111222,99999999' 
TABS,ioos:station:wmo:42043:1,2001-08-01T17:30:00Z,28.9818,-94.9186,2.0,79.69868882,14.59526293,-99999.0,'11111222,11111222,99999999' 
TABS,ioos:station:wmo:42043:1,2001-08-01T18:00:00Z,28.9818,-94.9186,2.0,88.33560549,14.11595551,-99999.0,'11111222,11111222,99999999' 
TABS,ioos:station:wmo:42043:1,2001-08-01T18:30:00Z,28.9818,-94.9186,2.0,97.04715239,13.69344734,-99999.0,'11111222,11111222,99999999' 
TABS,ioos:station:wmo:42043:1,2001-08-01T19:00:00Z,28.9818,-94.9186,2.0,115.4632855,14.18823809,-99999.0,'11111222,11111222,99999999' 
TABS,ioos:station:wmo:42043:1,2001-08-01T19:30:00Z,28.9818,-94.9186,2.0,119.0040999,13.24057401,-99999.0,'11111222,11111222,99999999' 
TABS,ioos:station:wmo:42043:1,2001-08-01T20:00:00Z,28.9818,-94.9186,2.0,127.243769,10.11221539,-99999.0,'11111222,11111222,99999999' 
TABS,ioos:station:wmo:42043:1,2001-08-01T20:30:00Z,28.9818,-94.9186,2.0,167.9634746,9.590849806,-99999.0,'11133222,11111222,99999999' 
TABS,ioos:station:wmo:42043:1,2001-08-01T21:00:00Z,28.9818,-94.9186,2.0,194.6917157,10.17261028,-99999.0,'11111222,11111222,99999999' 
TABS,ioos:station:wmo:42043:1,2001-08-01T21:30:00Z,28.9818,-94.9186,2.0,197.8300143,11.98569981,-99999.0,'11111222,11111222,99999999' 
TABS,ioos:station:wmo:42043:1,2001-08-01T22:00:00Z,28.9818,-94.9186,2.0,205.7489147,14.13338247,-99999.0,'11111222,11111222,99999999' 
TABS,ioos:station:wmo:42043:1,2001-08-01T22:30:00Z,28.9818,-94.9186,2.0,206.8084403,14.72240469,-99999.0,'11111222,11111222,99999999' 
TABS,ioos:station:wmo:42043:1,2001-08-01T23:00:00Z,28.9818,-94.9186,2.0,217.225102,13.5382606,-99999.0,'11111222,11111222,99999999' 
TABS,ioos:station:wmo:42043:1,2001-08-01T23:30:00Z,28.9818,-94.9186,2.0,218.9455066,11.26339203,-99999.0,'11111222,11111222,99999999' 
TABS,ioos:station:wmo:42043:1,2001-08-02T00:00:00Z,28.9818,-94.9186,2.0,216.1480634,9.052717824,-99999.0,'11133222,11111222,99999999' 
TABS,ioos:station:wmo:42043:1,2001-08-02T00:30:00Z,28.9818,-94.9186,2.0,208.753356,7.026378868,-99999.0,'11133222,11111222,99999999' 
TABS,ioos:station:wmo:42043:1,2001-08-02T01:00:00Z,28.9818,-94.9186,2.0,224.3812077,7.205837911,-99999.0,'11133222,11111222,99999999' 
TABS,ioos:station:wmo:42043:1,2001-08-02T01:30:00Z,28.9818,-94.9186,2.0,270.9195236,3.740481252,-99999.0,'11133222,11111222,99999999' 
TABS,ioos:station:wmo:42043:1,2001-08-02T02:00:00Z,28.9818,-94.9186,2.0,272.964265,6.769054587,-99999.0,'11133222,11111222,99999999' 
TABS,ioos:station:wmo:42043:1,2001-08-02T02:30:00Z,28.9818,-94.9186,2.0,288.664639,5.530867925,-99999.0,'11133222,11111222,99999999' 
TABS,ioos:station:wmo:42043:1,2001-08-02T03:00:00Z,28.9818,-94.9186,2.0,279.4130283,1.895521037,-99999.0,'11133222,11111222,99999999' 
TABS,ioos:station:wmo:42043:1,2001-08-02T03:30:00Z,28.9818,-94.9186,2.0,8.05202111,2.070410587,-99999.0,'11133222,11111222,99999999' 
TABS,ioos:station:wmo:42043:1,2001-08-02T04:00:00Z,28.9818,-94.9186,2.0,331.1700236,6.449387568,-99999.0,'11133222,11111222,99999999' 
TABS,ioos:station:wmo:42043:1,2001-08-02T04:30:00Z,28.9818,-94.9186,2.0,357.9363956,6.664322921,-99999.0,'11133222,11111222,99999999' 
TABS,ioos:station:wmo:42043:1,2001-08-02T05:00:00Z,28.9818,-94.9186,2.0,1.120925935,8.691662672,-99999.0,'11133222,11111222,99999999' 
TABS,ioos:station:wmo:42043:1,2001-08-02T05:30:00Z,28.9818,-94.9186,2.0,5.394835183,10.10475631,-99999.0,'11111222,11111222,99999999' 
TABS,ioos:station:wmo:42043:1,2001-08-02T06:00:00Z,28.9818,-94.9186,2.0,14.8620657,6.900855019,-99999.0,'11133222,11111222,99999999' 
TABS,ioos:station:wmo:42043:1,2001-08-02T06:30:00Z,28.9818,-94.9186,2.0,323.0521263,2.928002732,-99999.0,'11133222,11111222,99999999' 
TABS,ioos:station:wmo:42043:1,2001-08-02T07:00:00Z,28.9818,-94.9186,2.0,7.666996792,4.197523079,-99999.0,'11133222,11111222,99999999' 
TABS,ioos:station:wmo:42043:1,2001-08-02T07:30:00Z,28.9818,-94.9186,2.0,353.89042,3.570280101,-99999.0,'11133222,11111222,99999999' 
TABS,ioos:station:wmo:42043:1,2001-08-02T08:00:00Z,28.9818,-94.9186,2.0,9.98368154,2.711051457,-99999.0,'11133222,11111222,99999999' 
TABS,ioos:station:wmo:42043:1,2001-08-02T08:30:00Z,28.9818,-94.9186,2.0,48.65231947,0.999049548,-99999.0,'11133222,11111222,99999999' 
TABS,ioos:station:wmo:42043:1,2001-08-02T09:00:00Z,28.9818,-94.9186,2.0,26.1311499,0.590338886,-99999.0,'11133222,11111222,99999999' 
TABS,ioos:station:wmo:42043:1,2001-08-02T09:30:00Z,28.9818,-94.9186,2.0,203.8135574,3.913157293,-99999.0,'11133222,11111222,99999999' 
TABS,ioos:station:wmo:42043:1,2001-08-02T10:00:00Z,28.9818,-94.9186,2.0,194.9590285,6.624507529,-99999.0,'11133222,11111222,99999999' 
TABS,ioos:station:wmo:42043:1,2001-08-02T10:30:00Z,28.9818,-94.9186,2.0,195.3706992,7.809340561,-99999.0,'11133222,11111222,99999999' 
TABS,ioos:station:wmo:42043:1,2001-08-02T11:00:00Z,28.9818,-94.9186,2.0,198.0822526,11.82397987,-99999.0,'11111222,11111222,99999999' 
TABS,ioos:station:wmo:42043:1,2001-08-02T11:30:00Z,28.9818,-94.9186,2.0,205.103359,11.5731802,-99999.0,'11111222,11111222,99999999' 
TABS,ioos:station:wmo:42043:1,2001-08-02T12:00:00Z,28.9818,-94.9186,2.0,211.9102115,11.52113276,-99999.0,'11111222,11111222,99999999' 
TABS,ioos:station:wmo:42043:1,2001-08-02T12:30:00Z,28.9818,-94.9186,2.0,201.320544,13.50424007,-99999.0,'11111222,11111222,99999999' 
TABS,ioos:station:wmo:42043:1,2001-08-02T13:00:00Z,28.9818,-94.9186,2.0,201.8971474,13.29951879,-99999.0,'11111222,11111222,99999999' 
TABS,ioos:station:wmo:42043:1,2001-08-02T13:30:00Z,28.9818,-94.9186,2.0,208.2200252,12.54062997,-99999.0,'11111222,11111222,99999999' 
TABS,ioos:station:wmo:42043:1,2001-08-02T14:00:00Z,28.9818,-94.9186,2.0,214.0322665,14.38363306,-99999.0,'11111222,11111222,99999999' 
TABS,ioos:station:wmo:42043:1,2001-08-02T14:30:00Z,28.9818,-94.9186,2.0,217.9151381,14.90648181,-99999.0,'11111222,11111222,99999999' 
TABS,ioos:station:wmo:42043:1,2001-08-02T15:00:00Z,28.9818,-94.9186,2.0,221.3256216,17.32436723,-99999.0,'11111222,11111222,99999999' 
TABS,ioos:station:wmo:42043:1,2001-08-02T15:30:00Z,28.9818,-94.9186,2.0,220.6804194,18.77751847,-99999.0,'11111222,11111222,99999999' 
TABS,ioos:station:wmo:42043:1,2001-08-02T16:00:00Z,28.9818,-94.9186,2.0,220.9768085,21.1663601,-99999.0,'11111222,11111222,99999999' 
TABS,ioos:station:wmo:42043:1,2001-08-02T16:30:00Z,28.9818,-94.9186,2.0,224.9996843,22.92440185,-99999.0,'11111222,11111222,99999999' 
TABS,ioos:station:wmo:42043:1,2001-08-02T17:00:00Z,28.9818,-94.9186,2.0,231.8006839,24.66063462,-99999.0,'11111222,11111222,99999999' 
TABS,ioos:station:wmo:42043:1,2001-08-02T17:30:00Z,28.9818,-94.9186,2.0,237.0519264,23.97615482,-99999.0,'11111222,11111222,99999999' 
TABS,ioos:station:wmo:42043:1,2001-08-02T18:00:00Z,28.9818,-94.9186,2.0,235.0830369,25.52483105,-99999.0,'11111222,11111222,99999999' 
TABS,ioos:station:wmo:42043:1,2001-08-02T18:30:00Z,28.9818,-94.9186,2.0,235.2967654,28.08608552,-99999.0,'11111222,11111222,99999999' 
TABS,ioos:station:wmo:42043:1,2001-08-02T19:00:00Z,28.9818,-94.9186,2.0,235.2437478,32.80232461,-99999.0,'11111222,11111222,99999999' 
TABS,ioos:station:wmo:42043:1,2001-08-02T19:30:00Z,28.9818,-94.9186,2.0,236.3292121,32.39449336,-99999.0,'11111222,11111222,99999999' 
TABS,ioos:station:wmo:42043:1,2001-08-02T20:00:00Z,28.9818,-94.9186,2.0,237.0984494,35.05205415,-99999.0,'11111222,11111222,99999999' 
TABS,ioos:station:wmo:42043:1,2001-08-02T20:30:00Z,28.9818,-94.9186,2.0,233.2690484,40.31411911,-99999.0,'11111222,11111222,99999999' 
TABS,ioos:station:wmo:42043:1,2001-08-02T21:00:00Z,28.9818,-94.9186,2.0,233.855619,41.52133187,-99999.0,'11111222,11111222,99999999' 
TABS,ioos:station:wmo:42043:1,2001-08-02T21:30:00Z,28.9818,-94.9186,2.0,232.4538029,46.11120905,-99999.0,'11111222,11111222,99999999' 
TABS,ioos:station:wmo:42043:1,2001-08-02T22:00:00Z,28.9818,-94.9186,2.0,232.8967259,45.2383742,-99999.0,'11111222,11111222,99999999' 
TABS,ioos:station:wmo:42043:1,2001-08-02T22:30:00Z,28.9818,-94.9186,2.0,234.6602575,48.37325707,-99999.0,'11111222,11111222,99999999' 
TABS,ioos:station:wmo:42043:1,2001-08-02T23:00:00Z,28.9818,-94.9186,2.0,233.3180658,49.90226949,-99999.0,'11111222,11111222,99999999' 
TABS,ioos:station:wmo:42043:1,2001-08-02T23:30:00Z,28.9818,-94.9186,2.0,232.2089294,51.89470204,-99999.0,'11111222,11111222,99999999' 
TABS,ioos:station:wmo:42043:1,2001-08-03T00:00:00Z,28.9818,-94.9186,2.0,237.9873768,52.85785467,-99999.0,'11111222,11111222,99999999' 
TABS,ioos:station:wmo:42043:1,2001-08-03T00:30:00Z,28.9818,-94.9186,2.0,238.9991236,50.77216659,-99999.0,'11111222,11111222,99999999' 
TABS,ioos:station:wmo:42043:1,2001-08-03T01:00:00Z,28.9818,-94.9186,2.0,246.2925149,51.48465402,-99999.0,'11111222,11111222,99999999' 
TABS,ioos:station:wmo:42043:1,2001-08-03T01:30:00Z,28.9818,-94.9186,2.0,244.8142904,52.19154146,-99999.0,'11111222,11111222,99999999' 
TABS,ioos:station:wmo:42043:1,2001-08-03T02:00:00Z,28.9818,-94.9186,2.0,246.1378556,50.25565142,-99999.0,'11111222,11111222,99999999' 
TABS,ioos:station:wmo:42043:1,2001-08-03T02:30:00Z,28.9818,-94.9186,2.0,243.9024324,47.10210611,-99999.0,'11111222,11111222,99999999' 
TABS,ioos:station:wmo:42043:1,2001-08-03T03:00:00Z,28.9818,-94.9186,2.0,246.4075585,48.37311753,-99999.0,'11111222,11111222,99999999' 
TABS,ioos:station:wmo:42043:1,2001-08-03T03:30:00Z,28.9818,-94.9186,2.0,246.7783993,49.83736048,-99999.0,'11111222,11111222,99999999' 
TABS,ioos:station:wmo:42043:1,2001-08-03T04:00:00Z,28.9818,-94.9186,2.0,248.9690683,47.34359724,-99999.0,'11111222,11111222,99999999' 
TABS,ioos:station:wmo:42043:1,2001-08-03T04:30:00Z,28.9818,-94.9186,2.0,248.9058866,49.01430914,-99999.0,'11111222,11111222,99999999' 
TABS,ioos:station:wmo:42043:1,2001-08-03T05:00:00Z,28.9818,-94.9186,2.0,253.4471005,45.63099385,-99999.0,'11111222,11111222,99999999' 
TABS,ioos:station:wmo:42043:1,2001-08-03T05:30:00Z,28.9818,-94.9186,2.0,248.3031758,42.57629857,-99999.0,'11111222,11111222,99999999' 
TABS,ioos:station:wmo:42043:1,2001-08-03T06:00:00Z,28.9818,-94.9186,2.0,247.6737601,40.77669065,-99999.0,'11111222,11111222,99999999' 
TABS,ioos:station:wmo:42043:1,2001-08-03T06:30:00Z,28.9818,-94.9186,2.0,248.7198893,41.60676507,-99999.0,'11111222,11111222,99999999' 
TABS,ioos:station:wmo:42043:1,2001-08-03T07:00:00Z,28.9818,-94.9186,2.0,248.7318934,37.87977825,-99999.0,'11111222,11111222,99999999' 
TABS,ioos:station:wmo:42043:1,2001-08-03T07:30:00Z,28.9818,-94.9186,2.0,247.4510888,34.60541143,-99999.0,'11111222,11111222,99999999' 
TABS,ioos:station:wmo:42043:1,2001-08-03T08:00:00Z,28.9818,-94.9186,2.0,240.795938,35.45691047,-99999.0,'11111222,11111222,99999999' 
TABS,ioos:station:wmo:42043:1,2001-08-03T08:30:00Z,28.9818,-94.9186,2.0,241.8140511,36.05536437,-99999.0,'11111222,11111222,99999999' 
TABS,ioos:station:wmo:42043:1,2001-08-03T09:00:00Z,28.9818,-94.9186,2.0,241.2669161,34.40640202,-99999.0,'11111222,11111222,99999999' 
TABS,ioos:station:wmo:42043:1,2001-08-03T09:30:00Z,28.9818,-94.9186,2.0,236.2429675,31.00776193,-99999.0,'11111222,11111222,99999999' 
TABS,ioos:station:wmo:42043:1,2001-08-03T10:00:00Z,28.9818,-94.9186,2.0,238.2544688,34.07822325,-99999.0,'11111222,11111222,99999999' 
TABS,ioos:station:wmo:42043:1,2001-08-03T10:30:00Z,28.9818,-94.9186,2.0,233.8760906,35.46900901,-99999.0,'11111222,11111222,99999999' 
TABS,ioos:station:wmo:42043:1,2001-08-03T11:00:00Z,28.9818,-94.9186,2.0,232.4214588,39.96105354,-99999.0,'11111222,11111222,99999999' 
TABS,ioos:station:wmo:42043:1,2001-08-03T11:30:00Z,28.9818,-94.9186,2.0,236.7282834,38.33358058,-99999.0,'11111222,11111222,99999999' 
TABS,ioos:station:wmo:42043:1,2001-08-03T12:00:00Z,28.9818,-94.9186,2.0,241.4162791,40.50690435,-99999.0,'11111222,11111222,99999999' 
TABS,ioos:station:wmo:42043:1,2001-08-03T12:30:00Z,28.9818,-94.9186,2.0,240.5813692,37.64391319,-99999.0,'11111222,11111222,99999999' 
TABS,ioos:station:wmo:42043:1,2001-08-03T13:00:00Z,28.9818,-94.9186,2.0,239.4826929,36.72753871,-99999.0,'11111222,11111222,99999999' 
TABS,ioos:station:wmo:42043:1,2001-08-03T13:30:00Z,28.9818,-94.9186,2.0,238.2378181,39.40047715,-99999.0,'11111222,11111222,99999999' 
TABS,ioos:station:wmo:42043:1,2001-08-03T14:00:00Z,28.9818,-94.9186,2.0,240.7534687,37.76380542,-99999.0,'11111222,11111222,99999999' 
TABS,ioos:station:wmo:42043:1,2001-08-03T14:30:00Z,28.9818,-94.9186,2.0,233.9193917,31.0569493,-99999.0,'11111222,11111222,99999999' 
TABS,ioos:station:wmo:42043:1,2001-08-03T15:00:00Z,28.9818,-94.9186,2.0,234.220232,30.58153855,-99999.0,'11111222,11111222,99999999' 
TABS,ioos:station:wmo:42043:1,2001-08-03T15:30:00Z,28.9818,-94.9186,2.0,233.2926681,30.24812226,-99999.0,'11111222,11111222,99999999' 
TABS,ioos:station:wmo:42043:1,2001-08-03T16:00:00Z,28.9818,-94.9186,2.0,235.9104936,32.65044563,-99999.0,'11111222,11111222,99999999' 
TABS,ioos:station:wmo:42043:1,2001-08-03T16:30:00Z,28.9818,-94.9186,2.0,230.761137,31.69708188,-99999.0,'11111222,11111222,99999999' 
TABS,ioos:station:wmo:42043:1,2001-08-03T17:00:00Z,28.9818,-94.9186,2.0,244.2685817,35.33361714,-99999.0,'11111222,11111222,99999999' 
TABS,ioos:station:wmo:42043:1,2001-08-03T17:30:00Z,28.9818,-94.9186,2.0,238.2735041,34.80014368,-99999.0,'11111222,11111222,99999999' 
TABS,ioos:station:wmo:42043:1,2001-08-03T18:00:00Z,28.9818,-94.9186,2.0,243.9223895,40.44746346,-99999.0,'11111222,11111222,99999999' 
TABS,ioos:station:wmo:42043:1,2001-08-03T18:30:00Z,28.9818,-94.9186,2.0,248.238172,39.94679086,-99999.0,'11111222,11111222,99999999' 
TABS,ioos:station:wmo:42043:1,2001-08-03T19:00:00Z,28.9818,-94.9186,2.0,241.696028,40.68386044,-99999.0,'11111222,11111222,99999999' 
TABS,ioos:station:wmo:42043:1,2001-08-03T19:30:00Z,28.9818,-94.9186,2.0,245.9315668,47.93761988,-99999.0,'11111222,11111222,99999999' 
TABS,ioos:station:wmo:42043:1,2001-08-03T20:00:00Z,28.9818,-94.9186,2.0,239.4702536,40.94646383,-99999.0,'11111222,11111222,99999999' 
TABS,ioos:station:wmo:42043:1,2001-08-03T20:30:00Z,28.9818,-94.9186,2.0,240.8121947,43.98479851,-99999.0,'11111222,11111222,99999999' 
TABS,ioos:station:wmo:42043:1,2001-08-03T21:00:00Z,28.9818,-94.9186,2.0,240.5374029,44.50544461,-99999.0,'11111222,11111222,99999999' 
TABS,ioos:station:wmo:42043:1,2001-08-03T21:30:00Z,28.9818,-94.9186,2.0,237.2850845,43.33391282,-99999.0,'11111222,11111222,99999999' 
TABS,ioos:station:wmo:42043:1,2001-08-03T22:00:00Z,28.9818,-94.9186,2.0,237.6357666,47.09556773,-99999.0,'11111222,11111222,99999999' 
TABS,ioos:station:wmo:42043:1,2001-08-03T22:30:00Z,28.9818,-94.9186,2.0,235.6067188,45.44445951,-99999.0,'11111222,11111222,99999999' 
TABS,ioos:station:wmo:42043:1,2001-08-03T23:00:00Z,28.9818,-94.9186,2.0,233.2612225,42.71411242,-99999.0,'11111222,11111222,99999999' 
TABS,ioos:station:wmo:42043:1,2001-08-03T23:30:00Z,28.9818,-94.9186,2.0,234.5938571,42.42585061,-99999.0,'11111222,11111222,99999999' 
TABS,ioos:station:wmo:42043:1,2001-08-04T00:00:00Z,28.9818,-94.9186,2.0,238.4001857,42.04375102,-99999.0,'11111222,11111222,99999999' 
TABS,ioos:station:wmo:42043:1,2001-08-04T00:30:00Z,28.9818,-94.9186,2.0,243.0802767,41.94496513,-99999.0,'11111222,11111222,99999999' 
TABS,ioos:station:wmo:42043:1,2001-08-04T01:00:00Z,28.9818,-94.9186,2.0,251.8488844,40.80020833,-99999.0,'11111222,11111222,99999999' 
TABS,ioos:station:wmo:42043:1,2001-08-04T01:30:00Z,28.9818,-94.9186,2.0,253.8682471,40.20290164,-99999.0,'11111222,11111222,99999999' 
TABS,ioos:station:wmo:42043:1,2001-08-04T02:00:00Z,28.9818,-94.9186,2.0,256.761614,38.996237,-99999.0,'11111222,11111222,99999999' 
TABS,ioos:station:wmo:42043:1,2001-08-04T02:30:00Z,28.9818,-94.9186,2.0,259.2274201,37.61280899,-99999.0,'11111222,11111222,99999999' 
TABS,ioos:station:wmo:42043:1,2001-08-04T03:00:00Z,28.9818,-94.9186,2.0,260.9959525,35.52775957,-99999.0,'11111222,11111222,99999999' 
TABS,ioos:station:wmo:42043:1,2001-08-04T03:30:00Z,28.9818,-94.9186,2.0,262.2686238,34.71554263,-99999.0,'11111222,11111222,99999999' 
TABS,ioos:station:wmo:42043:1,2001-08-04T04:00:00Z,28.9818,-94.9186,2.0,261.4834687,34.84418459,-99999.0,'11111222,11111222,99999999' 
TABS,ioos:station:wmo:42043:1,2001-08-04T04:30:00Z,28.9818,-94.9186,2.0,265.873981,32.66464296,-99999.0,'11111222,11111222,99999999' 
TABS,ioos:station:wmo:42043:1,2001-08-04T05:00:00Z,28.9818,-94.9186,2.0,266.0922536,32.28504453,-99999.0,'11111222,11111222,99999999' 
TABS,ioos:station:wmo:42043:1,2001-08-04T05:30:00Z,28.9818,-94.9186,2.0,266.5681653,31.07571399,-99999.0,'11111222,11111222,99999999' 
TABS,ioos:station:wmo:42043:1,2001-08-04T06:00:00Z,28.9818,-94.9186,2.0,268.7215418,30.48758436,-99999.0,'11111222,11111222,99999999' 
TABS,ioos:station:wmo:42043:1,2001-08-04T06:30:00Z,28.9818,-94.9186,2.0,271.2254001,29.93684185,-99999.0,'11111222,11111222,99999999' 
TABS,ioos:station:wmo:42043:1,2001-08-04T07:00:00Z,28.9818,-94.9186,2.0,273.4164542,31.21546412,-99999.0,'11111222,11111222,99999999' 
TABS,ioos:station:wmo:42043:1,2001-08-04T07:30:00Z,28.9818,-94.9186,2.0,271.1516617,31.3563295,-99999.0,'11111222,11111222,99999999' 
TABS,ioos:station:wmo:42043:1,2001-08-04T08:00:00Z,28.9818,-94.9186,2.0,269.8447787,29.61010807,-99999.0,'11111222,11111222,99999999' 
TABS,ioos:station:wmo:42043:1,2001-08-04T08:30:00Z,28.9818,-94.9186,2.0,270.6051018,30.32168861,-99999.0,'11111222,11111222,99999999' 
TABS,ioos:station:wmo:42043:1,2001-08-04T09:00:00Z,28.9818,-94.9186,2.0,266.085451,28.56663263,-99999.0,'11111222,11111222,99999999' 
TABS,ioos:station:wmo:42043:1,2001-08-04T09:30:00Z,28.9818,-94.9186,2.0,265.9484069,28.45108961,-99999.0,'11111222,11111222,99999999' 
TABS,ioos:station:wmo:42043:1,2001-08-04T10:00:00Z,28.9818,-94.9186,2.0,265.2342736,28.40819776,-99999.0,'11111222,11111222,99999999' 
TABS,ioos:station:wmo:42043:1,2001-08-04T10:30:00Z,28.9818,-94.9186,2.0,264.5202599,27.85728809,-99999.0,'11111222,11111222,99999999' 
TABS,ioos:station:wmo:42043:1,2001-08-04T11:00:00Z,28.9818,-94.9186,2.0,259.4490961,25.45026522,-99999.0,'11111222,11111222,99999999' 
TABS,ioos:station:wmo:42043:1,2001-08-04T11:30:00Z,28.9818,-94.9186,2.0,255.0600646,27.23043334,-99999.0,'11111222,11111222,99999999' 
TABS,ioos:station:wmo:42043:1,2001-08-04T12:00:00Z,28.9818,-94.9186,2.0,249.7260541,27.30134978,-99999.0,'11111222,11111222,99999999' 
TABS,ioos:station:wmo:42043:1,2001-08-04T12:30:00Z,28.9818,-94.9186,2.0,246.4964436,29.63890686,-99999.0,'11111222,11111222,99999999' 
TABS,ioos:station:wmo:42043:1,2001-08-04T13:00:00Z,28.9818,-94.9186,2.0,238.0960315,28.64754789,-99999.0,'11111222,11111222,99999999' 
TABS,ioos:station:wmo:42043:1,2001-08-04T13:30:00Z,28.9818,-94.9186,2.0,240.714184,28.92707037,-99999.0,'11111222,11111222,99999999' 
TABS,ioos:station:wmo:42043:1,2001-08-04T14:00:00Z,28.9818,-94.9186,2.0,237.4694621,29.04728042,-99999.0,'11111222,11111222,99999999' 
TABS,ioos:station:wmo:42043:1,2001-08-04T14:30:00Z,28.9818,-94.9186,2.0,239.272784,27.79158326,-99999.0,'11111222,11111222,99999999' 
TABS,ioos:station:wmo:42043:1,2001-08-04T15:00:00Z,28.9818,-94.9186,2.0,242.3051767,30.40301465,-99999.0,'11111222,11111222,99999999' 
TABS,ioos:station:wmo:42043:1,2001-08-04T15:30:00Z,28.9818,-94.9186,2.0,234.2795293,29.20387988,-99999.0,'11111222,11111222,99999999' 
TABS,ioos:station:wmo:42043:1,2001-08-04T16:00:00Z,28.9818,-94.9186,2.0,234.3036086,27.33573668,-99999.0,'11111222,11111222,99999999' 